#timestamp,LO_Frequency,Hit,StdDev 
1458900015.8,286046996.5,N
1458900035.6,286047000.5,N
1458900055.4,286047001.2,N
1458900075.3,286046998.5,N
1458900095.1,286046998.9,N
1458900115.8,286046999.2,N
1458900135.7,286046998.9,N
1458900155.5,286046999.5,N
1458900175.3,286046997.5,N
1458900195.2,286046996.0,N
1458900215.9,286046992.1,Y
1458900235.7,286046993.4,P
1458900255.6,286046992.7,P
1458900275.4,286046993.2,N
1458900295.2,286046988.4,Y
1458900315.1,286046991.3,P
1458900316.0,286046991.3,P
1458900335.8,286046991.1,P
1458900355.6,286046991.7,Y
1458900375.5,286047007.1,P
1458900395.3,286047012.5,N
1458900415.1,286047012.5,N
1458900435.9,286047014.2,N
1458900455.7,286047014.2,N
1458900475.5,286047015.7,N
1458900495.4,286047017.9,N
1458900515.2,286047020.3,N
1458900535.0,286047020.3,N
1458900535.9,286047020.3,N
1458900555.8,286047019.5,N
1458900575.6,286047014.5,N
1458900595.4,286047016.3,N
1458900615.3,286047016.8,N
1458900635.1,286047012.9,N
1458900636.0,286047012.9,N
1458900655.8,286047014.4,N
1458900675.6,286047017.2,N
1458900695.5,286047018.4,N
1458900715.3,286047009.3,N
1458900735.1,286047008.1,N
1458900755.9,286047007.8,N
1458900775.7,286047011.5,N
1458900795.5,286047009.8,N
1458900815.4,286047010.3,N
1458900835.2,286047008.9,N
1458900855.0,286047008.4,N
1458900855.9,286047008.4,N
1458900875.8,286047005.5,N
1458900895.6,286047001.7,N
1458900915.4,286047001.9,N
1458900935.3,286047002.5,N
1458900955.1,286047005.6,N
1458900956.0,286047005.6,N
1458900975.8,286047009.1,N
1458900995.7,286047006.5,N
1458901015.5,286047006.1,N
1458901035.3,286047009.2,N
1458901055.1,286047005.8,N
1458901075.9,286047004.0,N
1458901095.7,286046998.7,N
1458901115.5,286047000.8,N
1458901135.4,286047000.0,N
1458901155.2,286047000.6,N
1458901175.0,286047005.4,N
1458901175.9,286047005.4,N
1458901195.8,286047006.4,N
1458901215.6,286047006.6,N
1458901235.4,286047005.0,N
1458901255.3,286047007.3,N
1458901275.1,286047004.5,N
1458901276.0,286047004.5,N
1458901295.8,286047007.5,N
1458901315.7,286047010.5,Y
1458901335.5,286046999.8,P
1458901355.3,286047003.9,N
1458901375.2,286047002.0,N
1458901395.9,286047002.2,N
1458901415.7,286047002.3,N
1458901435.6,286047000.3,N
1458901455.4,286047000.6,N
1458901475.2,286046998.1,N
1458901495.0,286047000.4,N
1458901496.0,286047000.4,N
1458901515.8,286047001.2,N
1458901535.6,286046996.0,N
1458901555.4,286046994.0,N
1458901575.3,286046993.5,N
1458901595.1,286046993.6,N
1458901615.8,286046997.7,N
1458901635.7,286046999.4,N
1458901655.5,286046997.8,N
1458901675.3,286046996.3,N
1458901695.2,286046995.5,N
1458901715.9,286046995.7,N
1458901735.7,286046996.4,N
1458901755.6,286046999.1,N
1458901775.4,286046993.3,N
1458901795.2,286046990.5,N
1458901815.1,286046994.6,N
1458901816.0,286046994.6,N
1458901835.8,286046993.9,N
1458901855.6,286046994.5,N
1458901875.4,286046990.9,N
1458901895.3,286046990.3,N
1458901915.1,286046990.8,N
1458901935.8,286046989.4,N
1458901955.7,286046989.0,N
1458901975.5,286046990.8,N
1458901995.3,286046992.0,N
1458902015.2,286046990.3,N
1458902035.9,286046987.4,Y
1458902055.7,286046997.5,P
1458902075.6,286046999.0,N
1458902095.4,286047000.8,N
1458902115.2,286046997.9,N
1458902135.1,286046998.1,N
1458902136.0,286046998.1,N
1458902155.8,286047004.4,N
1458902175.6,286047004.2,N
1458902195.5,286047000.2,N
1458902215.3,286047001.2,N
1458902235.1,286046998.5,N
1458902255.9,286046997.3,N
1458902275.7,286046999.0,N
1458902295.5,286046998.4,N
1458902315.3,286047001.4,N
1458902335.2,286047006.2,N
1458902355.0,286047010.7,Y
1458902355.9,286047010.7,P
1458902375.8,286047004.6,N
1458902395.6,286047006.1,N
1458902415.4,286047009.3,N
1458902435.3,286047013.8,Y
1458902455.1,286047002.0,P
1458902456.0,286047002.0,N
1458902475.8,286047001.0,N
1458902495.7,286047000.0,N
1458902515.5,286046999.9,N
1458902535.3,286046998.5,N
1458902555.1,286046998.9,N
1458902575.9,286046996.5,N
1458902595.7,286046999.1,N
1458902615.5,286046997.8,N
1458902635.4,286046996.0,N
1458902655.2,286046993.7,N
1458902675.0,286046997.8,N
1458902675.9,286046997.8,N
1458902695.8,286046996.5,N
1458902715.6,286047000.4,N
1458902735.4,286047002.4,N
1458902755.3,286046999.9,N
1458902775.1,286047001.0,N
1458902776.0,286047001.0,N
1458902795.8,286047001.1,N
1458902815.7,286047000.2,N
1458902835.5,286047001.0,N
1458902855.3,286047002.4,N
1458902875.1,286046998.4,N
1458902895.9,286047000.4,N
1458902915.7,286047001.5,N
1458902935.5,286046999.9,N
1458902955.4,286047000.2,N
1458902975.2,286047000.1,N
1458902995.0,286046996.9,N
1458902995.9,286046996.9,N
1458903015.8,286046997.0,N
1458903035.6,286046997.4,N
1458903055.4,286046997.1,N
1458903075.3,286046995.8,N
1458903095.1,286046994.0,N
1458903096.0,286046994.0,N
1458903115.8,286046994.5,N
1458903135.7,286046994.2,N
1458903155.5,286046994.1,N
1458903175.3,286046991.8,Y
1458903195.2,286046993.5,P
1458903215.9,286046993.5,N
1458903235.7,286046997.8,N
1458903255.6,286046993.6,N
1458903275.4,286046995.0,N
1458903295.2,286046999.3,N
1458903315.0,286046999.3,N
1458903316.0,286046999.3,N
1458903335.8,286046999.2,N
1458903355.6,286047000.3,N
1458903375.4,286046999.1,N
1458903395.3,286047001.6,N
1458903415.1,286047004.3,N
1458903435.8,286047006.4,N
1458903455.7,286047007.3,N
1458903475.5,286047009.1,N
1458903495.3,286047008.5,N
1458903515.2,286047007.7,N
1458903535.9,286047007.8,N
1458903555.7,286047010.6,N
1458903575.6,286047009.9,N
1458903595.4,286047008.4,N
